{"data":{"norad_id":61850,"epoch":"2026-05-25T01:45:09.454176Z","epoch_age_seconds":68172,"freshness":"FRESH","line1":"1 61850U 24202F   26145.07302609  .00000843  00000+0  40154-4 0  9997","line2":"2 61850  43.0013 166.2587 0001107 276.0366  84.0360 15.27579052 87028","mean_motion":15.27579052,"eccentricity":0.0001107,"inclination_deg":43.0013,"raan_deg":166.2587,"arg_perigee_deg":276.0366,"mean_anomaly_deg":84.036,"bstar":4.0154e-5,"rev_number":8702,"period_min":94.266807214636,"perigee_km":482.29240107909,"apogee_km":483.81146830923,"semimajor_km":6861.1889346942,"source":"CELESTRAK","updated_at":"2026-05-25T13:38:19.450424Z"}}